STARLINK-32331, 61623

Orbit data source: Space-Track

STARLINK-32331, 61623 is a payload satellite owned by SpaceX/Seattle (US) in LEO that was launched on Wed, 23 Oct 2024 UTC via an FALCON 9 launch vehicle from the Air Force Eastern Test Range (AFETR). Payload-class satellites include a variety of spacecraft equipped with specific instruments for various scientific and technological missions. These include communications satellites like Starlink; space stations such as the ISS; scientific satellites like the Hubble; Earth observation satellites from companies like Planet Labs, Umbra, and HawkEye 360; GPS; miniature CubeSats for education and research; and military/defense satellites.

Loading next visibility...
Identifier
61623, 2024-191C
Orbit
LEO
Last TLE update
3 hours ago
Origin
Manufacturer
SpaceX/Seattle
Mission
Operational Commercial Communications
Bus & Motor
STARLINK V2M, Unknown motor
Mass
730 kg wet, ~700 kg dry
Launch date (UTC)
2024-10-23 (9 months ago)
Launch vehicle
FALCON 9
Launch site
Air Force Eastern Test Range (AFETR)
Object type
Payload
Rocket body
Debris
Shape & HBR
Box + 2 Pan, 14.5 m
Radar Cross Section
36.964 m², Large (>1 m²)

Expand to show TLE details & history

TLE from 3 hours ago
0 STARLINK-32331
1 61623U 24191C   25199.85260518  .00000209  00000-0  17125-4 0  9997
2 61623  43.0022  38.5953 0001245 272.7285  87.3424 15.27578158 42383
Epoch: 2025-07-18T20:27Z
TLE epoch observation values (Epoch: 2025-07-18T20:27:45.087Z)
Latitude
-0.00003°
Longitude
154.75929°
Altitude
482.791 km
Speed
7.626 km/s
True Right ascension
02h 34m 22s
True Declination
0° 00' 00"
Sunlit
Object was in daylight at epoch
Visualization orbit readout
Latitude
-41.25942°
Longitude
43.43668°
Altitude
494.812 km
Speed
7.618 km/s
Apparent Right ascension
21h 28m 02s
Apparent Declination
-46° 25' 38"
Sunlit
Object is in full shadow
Visualization observer readout
Local Sidereal Time
11:56:01
Azimuth
116.016° SE
Elevation
-62.513°
Doppler factor
1
Orbital elements
Apogee altitude
485.854 km
Perigee altitude
484.145 km
Semi-major axis
6,863.136 km
Eccentricity
0.00012
Inclination
43.0022°
RAAN
38.5953°
Arg. of periapsis
272.7285°
True anomaly
87.35665°
Mean anomaly
87.3424°
Eccentric anomaly
87.34953°
Mean motion
3.81733 °/min
Orbital period
94.31 mins
BSTAR
0.000017125
Loading maneuver chart data...
Loading SW <> Apogee altitude chart data...
Loading historical data...
Loading historical data...
Loading historical data...
Loading historical data...
Loading historical data...
Loading historical data...
Loading historical data...
|